Weather Service Report


334 
FPUS83 KFGF 282231
OPUFGF
PRAIRIE TO PINES WEATHER ROUNDUP
NATIONAL WEATHER SERVICE EASTERN NORTH DAKOTA/GRAND FORKS ND
500 PM CDT MON JUL 28 2014

 **SATELLITE DATA USED TO AUGMENT SKY COVER AT AUTOMATED STATIONS**
 *****  WEATHER ACROSS EASTERN NORTH DAKOTA  *****
  
CITY           SKY/WX    TMP DP  RH WIND       PRES   REMARKS
GRAND FORKS    MOSUNNY   74  54  49 N7        30.22S                  
GRAND FORKS AF MOSUNNY   74  56  52 N7        30.23F                  
GRAND CITY NWS   N/A     75 N/A N/A N6          N/A                   
BUXTON           N/A     77  56  48 NW3         N/A                   
DEVILS LAKE    MOSUNNY   72  52  49 NE5       30.24S                  
FARGO          PTSUNNY   74  51  44 N8        30.22F                  
WAHPETON ARPT  PTCLDY    72  46  40 N9        30.23F                  
$$

 *****  WEATHER ACROSS CENTRAL AND WESTERN NORTH DAKOTA  *****
  
CITY           SKY/WX    TMP DP  RH WIND       PRES   REMARKS
JAMESTOWN      CLOUDY    70  53  54 NE7       30.26F                  
BISMARCK       MOSUNNY   75  50  41 CALM      30.28F                  
MINOT          MOSUNNY   75  55  49 N7        30.26F                  
MINOT AFB      MOSUNNY   73  55  52 N7        30.26S                  
GARRISON         N/A     73  56  54 SW5       30.27F                  
WILLISTON      PTSUNNY   80  51  36 E8        30.24F                  
DICKINSON      MOSUNNY   78  53  41 E10       30.26F                  
HETTINGER      MOSUNNY   75  51  43 E5        30.29F                  
$$

 *****  OTHER OBSERVATIONS NORTHEAST NORTH DAKOTA  *****
  
CITY           SKY/WX    TMP DP  RH WIND       PRES   REMARKS
WALHALLA         N/A     73  52  46 NW9         N/A                   
LANGDON        FAIR      72  52  49 NW8       30.25F                  
CAVALIER       FAIR      73  55  53 NW6       30.22F                  
GRAFTON        FAIR      72  54  53 N7        30.22F                  
CANDO          MOCLDY    72  54  53 N7        30.26S                  
FORT TOTTEN      N/A     75  56  51 NW3       29.95S                  
ROLLA            N/A     70  50  49 W3        30.28S                  
RUGBY          FAIR      68  55  64 N5        30.26F                  
 ***** THE ABOVE OBSERVATIONS ARE NON NWS ARE NOT QUALITY
        CONTROLLED AND MAY MIS-REPORT RAIN FOR SNOW...
$$

 *****  OTHER OBSERVATIONS SOUTHEAST NORTH DAKOTA *****
  
CITY           SKY/WX    TMP DP  RH WIND       PRES   REMARKS
COOPERSTOWN    NOT AVBL                                               
VALLEY CITY    MOCLDY    70  50  49 N7        30.26F                  
OAKES          NOT AVBL                                               
GWINNER        MOCLDY    72  54  53 NW7       30.27F                  
SHEYENNE NWR     N/A     73  50  43 N3        29.95S                  
BUFFALO        NOT AVBL                                               
WYNDMERE       NOT AVBL                                               
 ***** THE ABOVE OBSERVATIONS ARE NON NWS ARE NOT QUALITY
       CONTROLLED AND MAY MIS-REPORT RAIN FOR SNOW...
$$

  *****  WEATHER ACROSS NORTHERN MINNESOTA  *****     
  
CITY           SKY/WX    TMP DP  RH WIND       PRES   REMARKS
FLAG ISLAND    SUNNY     73  52  46 NW6       30.15S                  
WARROAD        MOSUNNY   73  59  60 CALM      30.18F                  
ROSEAU         MOSUNNY   75  57  53 NW9       30.18F                  
HALLOCK        MOSUNNY   75  54  46 NW7       30.20F                  
THF RVR FALLS  PTSUNNY   72  54  53 W8        30.22S                  
HALSTAD          N/A     74  50  42 NW7         N/A                   
FOSSTON        MOSUNNY   73  54  49 NW8       30.22F                  
BAUDETTE       SUNNY     75  54  47 NW9       30.18F                  
WASKISH        SUNNY     75  55  50 CALM      30.17F                  
CROOKSTON      SUNNY     73  54  49 NW7       30.23S                  
$$
  *****  WEATHER ACROSS CENTRAL AND WEST MINNESOTA  *****     
  
CITY           SKY/WX    TMP DP  RH WIND       PRES   REMARKS
BEMIDJI        MOSUNNY   70  52  52 NW8       30.20S                  
PARK RAPIDS    PTSUNNY   71  52  50 N9        30.21S                  
WADENA         MOSUNNY   72  55  56 NW6       30.21S                  
DETROIT LAKES  MOSUNNY   72  52  49 N9        30.24F                  
MOORHEAD       MOSUNNY   73  50  43 N6        30.23F                  
FERGUS FALLS   MOSUNNY   73  46  38 NW12      30.22S                  
ELBOW LAKE     FAIR      71  53  53 NW13      30.22S                  
MORRIS MN      PTSUNNY   75  54  46 NW8       30.22F                  
STAPLES        PTSUNNY   72  52  49 N6        30.20S                  
WHEATON        MOSUNNY   70  52  52 W7        30.25F                  
$$
  *****  WEATHER ELSEWHERE ACROSS MINNESOTA  *****     
  
CITY           SKY/WX    TMP DP  RH WIND       PRES   REMARKS
DULUTH         PTSUNNY   73  54  51 NW8       30.13S                  
INTRNTL FALLS  PTSUNNY   74  55  51 NW9       30.13F                  
ELY            MOSUNNY   72  54  53 NW10G20   30.10F                  
CLOQUET        PTSUNNY   72  50  46 NW7       30.14S                  
BRAINERD       SUNNY     73  53  49 N12       30.18F                  
HIBBING        PTSUNNY   76  54  46 NW13G21   30.14F                  
ALEXANDRIA     SUNNY     74  51  44 NW13      30.23F                  
SAINT CLOUD    PTSUNNY   78  50  37 NW10      30.17S                  
MINNEAPOLIS    MOSUNNY   77  52  41 W8G22     30.15F                  
$$

  *****  WEATHER ACROSS SOUTH DAKOTA  *****
  
CITY           SKY/WX    TMP DP  RH WIND       PRES   REMARKS
SIOUX FALLS    MOSUNNY   74  55  51 N10       30.23F                  
BROOKINGS      NOT AVBL                                               
WATERTOWN      CLOUDY    73  50  44 N13       30.26F                  
HURON          PTSUNNY   73  51  46 N8        30.25F                  
SISSETON         N/A     71  52  50 N7        30.24F                  
ABERDEEN       PTSUNNY   73  50  44 NE7       30.26F                  
MITCHELL       PTSUNNY   74  53  48 NE8       30.25F                  
PIERRE         SUNNY     80  51  36 NW8       30.24F                  
MOBRIDGE       MOSUNNY   76  52  43 N10       30.25F                  
RAPID CITY     SUNNY     80  55  42 E9        30.26F                  
$$

  *****  SOME WEATHER IN NEARBY STATES *****
  
CITY           SKY/WX    TMP DP  RH WIND       PRES   REMARKS
GLASGOW MT     SUNNY     89  44  20 VRB6G16   30.19F                  
GREAT FALLS MT MOSUNNY   89  39  17 NE6       30.17F                  
CHEYENNE WY    MOSUNNY   82  50  32 S9G16     30.33F                  
SCOTTSBLUFF NE SUNNY     89  59  36 E13       30.23F                  
OMAHA NE       MOSUNNY   79  55  43 NW9       30.20F                  
DES MOINES IA  PTSUNNY   73  57  57 N5        30.18S                  
DAVENPORT IA   CLOUDY    70  52  52 NW8       30.15S                  
CHICAGO IL     MOSUNNY   71  48  43 NE8       30.09R                  
EAU CLAIRE WI  SUNNY     75  50  41 NW13      30.13S                  
LA CROSSE WI   SUNNY     76  49  38 NW9       30.12F                  
$$

  *****  SOME NATIONAL WEATHER *****
  
CITY           SKY/WX    TMP DP  RH WIND       PRES   REMARKS
LA GUARDIA NY  PTSUNNY   83  57  41 W20G26    29.54R                  
RALEIGH NC     MOSUNNY   85  57  38 N8G17     29.79F                  
ATLANTA GA     MOSUNNY   87  61  41 NW17G26   29.91S                  
NEW ORLEANS LA PTSUNNY   90  74  59 W15       30.00F HX  99           
OKLAHOMA CITY  PTSUNNY   85  58  39 NE8       30.17F                  
ALBUQUERQUE NM MOSUNNY   85  50  29 SW13      30.30F                  
SALT LAKE CITY CLOUDY    85  55  35 W21       30.15R                  
LOS ANGELES CA PTSUNNY   76  60  57 W16       30.04F                  
BOISE ID       MOSUNNY   99  41  13 S12       30.04F HX  94           
SEATTLE WA     SUNNY     85  53  33 N13       30.11S                  
$$

*** WEATHER ACROSS MANITOBA...SASKATCHEWAN AND ONTARIO ***
                ***ONTARIO***
  
CITY           SKY/WX    TMP DP  RH WIND       PRES   REMARKS
GERALDTON      CLOUDY   N/A N/A N/A N12         N/A                   
THUNDER BAY    LGT RAIN  70  57  64 N5        30.02F                  
SIOUX LOOKOUT  LGT RAIN  72  54  53 W10G20    30.08F                  
TORONTO        PTSUNNY   64  48  55 NW20G30   29.84R                  
BIG TROUT LK   LGT RAIN  63  57  82 NE3       30.01S                  
PICKLE LAKE    PTSUNNY   66  57  72 CALM      30.02S THUNDER          
DRYDEN         MOSUNNY   75  48  38 N8        30.11F                  
KENORA         CLOUDY    77  54  44 NW10G17   30.16F                  
$$      
                *** MANITOBA***
  
CITY           SKY/WX    TMP DP  RH WIND       PRES   REMARKS
BRANDON        PTSUNNY   73  50  43 NW9       30.26F                  
DAUPHIN        SUNNY     75  52  43 NW5       30.23F                  
ISLAND LAKE    MOSUNNY   81  50  34 NW9       30.09F                  
PILOT MOUND      N/A     72  52  49 NW6         N/A                   
THE PAS        MOSUNNY   75  50  41 W6        30.21F                  
THOMPSON       MOSUNNY   63  48  59 NW12G17   30.12F                  
WINNIPEG       MOSUNNY   72  55  56 NW8       30.21F                  
LYNN LAKE      SUNNY     81  45  28 N5        30.14F                  
CHURCHILL      PTSUNNY   54  52  94 E10       30.12S FOG              
GILLAM         PTSUNNY   79  52  38 N13       30.05S                  
$$
                ***SASKATCHEWAN***
  
CITY           SKY/WX    TMP DP  RH WIND       PRES   REMARKS
ESTEVAN        MOSUNNY   75  59  57 SE2       30.26F                  
KINDERSLEY     PTSUNNY   79  61  53 SE7       30.23F                  
LLOYDMINSTER   MOSUNNY   79  57  47 VRB2      30.23F                  
PRINCE ALBERT  PTSUNNY   72  63  73 SE3       30.22F                  
REGINA         PTSUNNY   79  59  50 N7        30.24F                  

Return to Home page


Western Regional Climate Center, wrcc@dri.edu